User: anonymous   Login
Location: Street
(51.1247°N, 2.7429°W)
Time: 00:46:05
(UTC+01:00)
Language:

NANOSAT C BR1 - Orbit

View from above orbital plane
View from above orbital plane
View from above satellite
View from above satellite

Ground track
Ground track

The orbit data is extracted from the following two-line orbital elements,

1 40024U 14033Q   24201.88088407  .00015548  00000-0  11245-2 0  9991
2 40024  98.0634 175.3591 0007714  69.3464 290.8587 15.04104626548683
Epoch (UTC): 19 July 2024 21:08:28
Eccentricity: 0.0007714
inclination: 98.0634°
perigee height: 549 km
apogee height: 559 km
right ascension of ascending node: 175.3591°
argument of perigee: 69.3464°
revolutions per day: 15.04104626
mean anomaly at epoch: 290.8587°
orbit number at epoch: 54868

The dashed part of the orbit path shows where the satellite is in the earth's shadow,  

DLR